Precipitable_Water
1.15 1.26 1.33 1.30 1.31 1.26 1.15 1.11 1.15 1.24 1.27 1.30 1.33 1.31 1.26 1.27 1.27 1.27 1.15 1.06 1.05 1.07 1.10 1.09 1.09 1.07 1.08 1.07 1.08 1.14 1.15 1.17 1.21 1.23 1.22 1.20 1.18 1.17 1.20 1.24 1.28 1.31 1.36
1.15 1.22 1.29 1.22 1.21 1.20 1.14 1.09 1.12 1.21 1.27 1.32 1.37 1.33 1.31 1.33 1.26 1.16 1.12 1.07 1.04 1.07 1.07 1.03 1.02 1.00 1.02 1.08 1.13 1.18 1.19 1.22 1.28 1.29 1.27 1.23 1.23 1.21 1.24 1.25 1.27 1.31 1.35
1.08 1.14 1.25 1.21 1.18 1.15 1.12 1.08 1.11 1.21 1.25 1.29 1.34 1.37 1.37 1.28 1.19 1.11 1.06 1.05 1.03 1.06 1.02 0.98 0.96 0.95 1.00 1.06 1.13 1.20 1.24 1.26 1.31 1.31 1.30 1.24 1.24 1.24 1.21 1.23 1.25 1.30 1.33
1.06 1.14 1.21 1.26 1.19 1.18 1.17 1.11 1.11 1.20 1.27 1.27 1.27 1.31 1.27 1.21 1.15 1.07 1.05 1.02 1.03 1.05 1.02 0.99 0.95 0.93 0.94 1.02 1.13 1.21 1.23 1.25 1.28 1.32 1.31 1.33 1.30 1.27 1.24 1.25 1.25 1.25 1.30
1.06 1.07 1.13 1.22 1.23 1.21 1.20 1.15 1.12 1.16 1.24 1.29 1.27 1.25 1.22 1.18 1.15 1.12 1.12 1.07 1.05 1.03 1.01 1.01 0.96 0.93 0.94 0.98 1.10 1.20 1.23 1.25 1.27 1.34 1.28 1.30 1.33 1.29 1.29 1.30 1.29 1.26 1.25
1.02 1.06 1.10 1.13 1.19 1.24 1.21 1.20 1.16 1.19 1.23 1.26 1.27 1.28 1.24 1.21 1.21 1.19 1.17 1.13 1.10 1.07 1.04 0.99 0.96 0.94 0.99 0.97 1.03 1.16 1.20 1.24 1.27 1.30 1.27 1.29 1.29 1.31 1.30 1.27 1.25 1.24 1.23
1.00 1.05 1.09 1.15 1.19 1.22 1.21 1.23 1.23 1.23 1.24 1.26 1.28 1.28 1.25 1.26 1.29 1.30 1.27 1.22 1.16 1.08 1.02 0.96 0.92 1.00 1.02 1.01 1.06 1.12 1.18 1.21 1.25 1.24 1.31 1.30 1.28 1.30 1.25 1.21 1.20 1.19 1.19
1.01 1.08 1.13 1.15 1.15 1.18 1.23 1.25 1.26 1.25 1.27 1.29 1.30 1.32 1.32 1.32 1.35 1.38 1.39 1.33 1.24 1.12 1.01 0.95 0.92 0.99 1.03 1.04 1.07 1.14 1.17 1.22 1.23 1.28 1.30 1.27 1.21 1.23 1.19 1.18 1.15 1.15 1.13
1.13 1.14 1.16 1.22 1.26 1.30 1.28 1.28 1.30 1.30 1.30 1.32 1.34 1.36 1.37 1.38 1.40 1.43 1.46 1.40 1.25 1.11 1.03 0.93 0.87 0.97 1.04 1.08 1.15 1.16 1.17 1.23 1.23 1.29 1.29 1.25 1.22 1.18 1.14 1.11 1.10 1.06 1.05
1.12 1.13 1.14 1.19 1.24 1.26 1.30 1.32 1.32 1.33 1.32 1.30 1.32 1.34 1.36 1.40 1.44 1.49 1.51 1.45 1.30 1.15 1.01 0.90 0.85 0.86 1.03 1.12 1.16 1.20 1.20 1.18 1.22 1.23 1.24 1.22 1.15 1.11 1.06 1.05 0.99 0.96 0.94
1.07 1.12 1.16 1.14 1.21 1.26 1.30 1.34 1.35 1.36 1.34 1.31 1.33 1.37 1.40 1.43 1.47 1.51 1.56 1.55 1.34 1.15 1.03 0.93 0.91 0.98 1.01 1.13 1.18 1.18 1.15 1.16 1.17 1.18 1.21 1.12 1.09 1.10 1.01 0.94 0.90 0.86 0.83
0.95 1.06 1.16 1.17 1.20 1.27 1.30 1.33 1.36 1.38 1.40 1.39 1.38 1.39 1.41 1.42 1.48 1.53 1.57 1.54 1.40 1.20 1.05 0.99 0.97 1.06 1.12 1.15 1.16 1.12 1.09 1.14 1.15 1.16 1.17 1.11 1.06 1.02 0.98 0.92 0.89 0.86 0.82
0.86 1.00 1.07 1.11 1.16 1.19 1.21 1.29 1.33 1.38 1.39 1.41 1.43 1.44 1.44 1.47 1.53 1.53 1.54 1.59 1.51 1.32 1.12 1.07 1.06 1.08 1.10 1.13 1.12 1.09 1.12 1.14 1.12 1.10 1.16 1.13 1.10 1.03 1.00 0.96 0.90 0.86 0.84
0.84 0.95 1.08 1.13 1.15 1.19 1.27 1.29 1.30 1.32 1.37 1.39 1.43 1.46 1.41 1.39 1.43 1.46 1.49 1.49 1.49 1.41 1.22 1.13 1.06 1.05 1.08 1.12 1.14 1.07 1.09 1.09 1.08 1.08 1.15 1.13 1.08 1.04 1.01 0.98 0.92 0.90 0.87
0.85 0.91 1.00 1.09 1.12 1.16 1.20 1.24 1.25 1.27 1.32 1.37 1.41 1.44 1.44 1.44 1.43 1.46 1.47 1.49 1.51 1.47 1.31 1.18 1.11 1.07 1.06 1.12 1.11 1.07 1.07 1.07 1.07 1.09 1.14 1.14 1.12 1.08 1.03 0.97 0.93 0.91 0.88
0.83 0.86 1.02 1.07 1.17 1.20 1.18 1.19 1.21 1.27 1.31 1.35 1.42 1.45 1.50 1.51 1.48 1.47 1.42 1.41 1.43 1.48 1.37 1.25 1.18 1.12 1.10 1.12 1.12 1.12 1.08 1.08 1.08 1.10 1.15 1.17 1.16 1.11 1.04 1.00 0.97 0.93 0.88
0.85 0.98 1.02 1.14 1.22 1.20 1.24 1.24 1.27 1.32 1.34 1.36 1.39 1.45 1.47 1.52 1.55 1.56 1.54 1.47 1.47 1.47 1.38 1.31 1.26 1.19 1.15 1.14 1.12 1.13 1.09 1.09 1.08 1.11 1.18 1.18 1.22 1.16 1.08 1.01 0.97 0.90 0.89
0.66 0.80 0.96 1.11 1.19 1.26 1.26 1.28 1.33 1.32 1.31 1.34 1.43 1.51 1.58 1.58 1.59 1.61 1.61 1.64 1.61 1.51 1.38 1.32 1.25 1.20 1.17 1.12 1.10 1.11 1.10 1.10 1.10 1.14 1.15 1.16 1.18 1.20 1.12 1.00 0.94 0.89 0.86
0.63 0.71 0.87 1.04 1.12 1.24 1.42 1.43 1.39 1.36 1.33 1.36 1.41 1.46 1.50 1.53 1.55 1.56 1.46 1.49 1.56 1.58 1.45 1.35 1.28 1.23 1.18 1.15 1.13 1.12 1.12 1.10 1.14 1.14 1.11 1.13 1.18 1.17 1.14 1.04 0.92 0.86 0.86
0.83 0.65 0.92 1.04 1.14 1.24 1.38 1.43 1.40 1.39 1.36 1.42 1.39 1.43 1.50 1.48 1.42 1.42 1.43 1.40 1.34 1.48 1.35 1.26 1.28 1.30 1.21 1.17 1.13 1.10 1.10 1.14 1.17 1.13 1.08 1.13 1.15 1.14 1.11 1.05 0.91 0.86 0.87
0.83 0.88 0.88 0.97 1.08 1.17 1.23 1.24 1.28 1.25 1.37 1.37 1.41 1.46 1.48 1.44 1.37 1.34 1.36 1.31 1.28 1.31 1.21 1.16 1.22 1.20 1.18 1.19 1.10 1.06 1.06 1.13 1.11 1.12 1.12 1.12 1.10 1.10 1.09 1.02 0.88 0.86 0.87
0.58 0.73 0.88 0.99 1.05 1.14 1.24 1.30 1.32 1.31 1.38 1.38 1.43 1.48 1.52 1.45 1.39 1.37 1.36 1.29 1.27 1.25 1.14 1.22 1.19 1.14 1.13 1.20 1.06 1.02 0.91 0.98 1.02 1.05 1.08 1.09 1.07 1.07 1.03 0.96 0.86 0.83 0.87
0.51 0.56 0.69 0.80 0.91 1.06 1.18 1.30 1.32 1.36 1.35 1.29 1.33 1.36 1.41 1.46 1.45 1.37 1.32 1.30 1.25 1.22 1.18 1.27 1.20 1.13 1.08 1.14 1.16 1.03 0.88 0.84 0.92 0.98 0.99 1.01 1.00 0.97 0.95 0.89 0.82 0.82 0.81
0.54 0.56 0.57 0.71 0.77 0.88 0.99 1.04 1.10 1.10 1.07 1.21 1.25 1.32 1.36 1.37 1.34 1.26 1.21 1.26 1.23 1.20 1.32 1.25 1.28 1.20 1.14 1.07 1.10 1.12 1.04 1.01 0.89 0.81 0.91 0.93 0.91 0.91 0.87 0.83 0.78 0.79 0.77
0.55 0.57 0.58 0.62 0.65 0.77 0.81 0.84 0.86 0.90 0.93 0.98 1.04 1.11 1.21 1.32 1.30 1.31 1.20 1.28 1.18 1.22 1.28 1.29 1.24 1.17 1.17 1.09 1.06 1.05 1.01 0.99 1.01 0.89 0.77 0.78 0.81 0.86 0.85 0.82 0.77 0.76 0.75
0.51 0.52 0.55 0.61 0.64 0.69 0.76 0.81 0.82 0.85 0.88 0.89 0.90 0.92 0.92 0.96 1.16 1.27 1.23 1.16 1.19 1.16 1.19 1.27 1.19 1.12 1.11 1.12 1.12 1.07 0.99 0.95 0.92 0.86 0.81 0.84 0.75 0.82 0.84 0.83 0.79 0.72 0.73
Wind_Speed
5 6 6 7 6 7 7 6 6 7 9 9 9 10 9 8 7 7 6 5 5 5 5 4 3 3 2 1 1 1 1 2 3 4 4 5 5 5 5 5 4 4 4
5 7 7 8 8 8 7 7 7 7 9 10 10 10 10 9 9 8 8 7 7 7 6 5 5 4 4 3 3 2 2 2 2 3 4 4 4 4 4 4 4 4 3
4 7 8 8 8 8 8 8 8 8 9 10 10 11 10 10 9 9 9 9 9 9 8 8 7 6 5 4 4 3 3 3 3 4 4 4 4 4 4 4 4 4 3
5 7 9 9 9 9 9 9 9 10 10 11 11 11 11 11 11 11 11 11 11 11 10 10 9 8 7 6 6 5 4 4 4 4 4 4 4 4 4 4 4 3 3
6 8 9 10 10 10 10 10 11 11 12 12 13 13 13 13 13 12 12 12 13 13 12 12 11 10 9 9 8 6 6 6 5 4 4 4 5 5 5 4 4 3 3
7 8 9 11 11 11 11 12 12 13 13 14 15 15 15 15 15 15 14 14 14 14 14 13 13 12 11 10 10 8 7 5 5 4 4 5 5 5 5 5 4 3 3
7 8 10 12 13 14 14 14 14 14 15 16 16 17 17 17 17 17 17 17 17 16 16 15 15 14 13 12 11 10 8 7 6 5 5 5 5 5 5 4 3 3 2
9 9 11 12 14 16 16 16 16 17 17 18 18 19 19 19 20 19 19 19 18 18 18 17 16 15 14 13 13 11 10 9 7 6 6 6 5 5 4 4 3 2 1
11 12 13 14 15 16 17 18 18 18 19 20 21 21 21 22 22 22 21 21 20 20 20 19 18 17 16 14 14 13 11 10 8 7 6 6 5 4 4 3 2 1 2
14 15 15 15 15 17 18 19 20 20 20 22 23 24 24 25 25 25 24 24 23 22 21 21 20 19 18 16 15 14 13 11 10 8 7 6 5 4 3 2 2 2 2
17 17 17 17 17 18 19 20 21 22 23 24 25 26 26 27 27 27 27 26 25 24 23 22 21 20 20 19 18 17 15 13 11 9 7 7 6 5 4 3 4 3 3
20 20 20 20 20 20 21 22 23 24 25 26 26 28 29 29 30 29 29 29 28 27 26 24 23 22 21 20 19 18 17 15 13 11 8 6 6 6 5 5 4 4 4
24 23 23 23 23 23 23 23 24 25 26 27 28 29 30 31 31 31 31 31 30 29 28 27 26 25 23 22 21 20 19 17 15 13 10 8 7 6 7 6 6 5 4
23 24 24 24 24 25 25 25 26 27 28 29 30 31 32 33 34 33 33 33 33 32 30 30 29 28 26 24 24 22 21 19 17 15 13 10 8 8 7 7 7 7 6
24 25 25 25 25 26 26 26 28 29 29 30 30 31 33 33 35 36 36 35 35 34 33 32 31 31 29 27 26 25 23 21 19 17 15 12 11 9 9 8 8 8 7
27 27 28 29 29 29 29 29 30 31 31 30 31 32 33 34 36 38 39 38 37 37 35 34 33 34 32 30 29 27 25 23 21 19 17 15 13 12 11 10 9 9 9
31 31 31 32 32 32 32 32 31 32 32 32 33 33 33 35 36 40 41 40 39 38 38 37 36 35 35 32 31 30 28 26 24 21 19 17 15 14 13 12 10 9 9
32 33 33 34 35 35 35 34 33 33 33 33 33 33 33 34 35 37 37 42 42 40 39 40 39 38 38 36 34 32 30 28 26 24 21 19 17 16 15 14 13 11 10
34 35 35 35 35 35 36 35 35 34 33 33 33 33 34 34 34 33 35 33 42 42 36 45 43 43 40 38 36 34 32 31 29 26 24 21 19 18 17 16 15 13 12
32 33 34 35 35 36 36 36 35 35 35 34 34 33 32 33 33 34 33 33 33 36 33 36 44 41 43 41 37 35 33 32 30 28 26 23 22 20 19 18 16 15 13
30 30 31 33 35 35 36 36 37 37 36 36 34 34 33 33 33 34 33 33 33 35 37 36 39 38 40 43 39 34 33 32 31 29 27 25 24 22 21 20 18 16 15
28 28 27 29 32 33 35 36 37 36 36 36 34 34 34 34 35 35 35 36 36 36 36 35 38 41 41 40 40 37 34 32 31 29 28 27 25 24 23 22 20 18 16
29 29 29 29 29 29 31 33 34 35 36 35 35 35 35 35 36 35 37 37 38 39 41 39 37 38 43 44 44 39 36 34 31 29 28 28 26 25 24 23 22 20 18
30 31 30 29 28 27 28 29 31 32 35 36 36 36 35 35 36 37 38 39 37 37 37 37 35 34 40 41 43 40 39 35 32 30 30 29 28 27 26 25 24 22 20
33 33 31 30 30 30 30 30 31 32 32 34 34 36 37 37 37 37 37 39 38 35 37 36 33 33 40 43 48 41 39 35 34 31 30 29 28 28 28 28 26 24 22
36 34 34 34 34 33 33 33 33 35 35 35 36 36 37 36 37 37 37 38 38 38 32 37 35 31 31 40 43 45 43 36 34 32 29 31 28 28 29 29 28 26 24
Wind_Direction
231 197 190 189 187 184 183 184 189 192 194 194 193 194 197 201 208 214 219 217 217 220 222 220 219 224 232 240 264 335 357 7 13 13 12 11 11 12 12 13 12 14 16
201 201 204 196 193 192 196 199 197 197 199 201 202 206 209 213 219 224 228 229 231 231 231 231 235 241 242 244 250 270 302 325 340 351 358 1 2 5 7 9 7 6 8
218 207 202 196 196 200 204 208 209 207 208 209 211 214 218 223 228 229 234 236 237 236 237 240 242 243 245 245 248 259 272 292 308 327 337 339 343 350 354 356 2 6 5
218 204 203 202 204 205 210 213 216 217 217 217 219 222 226 230 233 235 236 238 239 241 242 243 243 244 245 245 248 252 265 280 280 300 321 329 336 339 338 342 351 351 356
221 209 208 208 212 216 221 225 225 226 227 226 228 230 233 234 236 238 242 242 243 244 244 244 243 243 246 247 244 250 262 274 262 276 295 308 310 310 313 320 321 326 329
225 221 219 221 225 228 229 232 232 233 234 235 236 237 238 239 241 242 244 246 246 245 245 243 243 243 245 246 242 244 260 253 258 268 284 304 304 301 303 310 304 303 304
234 236 235 236 235 235 237 238 238 239 239 240 241 241 243 243 243 245 246 247 246 245 246 245 243 243 243 242 240 240 244 248 252 261 282 294 298 301 294 300 297 302 280
245 250 248 245 243 241 242 242 243 244 244 244 244 244 244 245 246 246 246 247 247 246 245 244 243 242 241 239 236 234 237 242 246 259 276 290 294 295 295 289 289 275 239
255 258 257 253 249 247 245 245 245 247 247 247 246 247 245 246 246 246 247 248 248 246 244 243 242 240 237 235 231 230 231 235 238 253 266 279 283 290 279 275 269 214 176
263 262 260 255 251 250 249 248 248 250 251 250 251 250 250 249 248 247 246 247 246 243 243 242 240 238 235 232 229 228 229 232 236 249 254 272 273 279 267 248 220 195 183
265 262 257 255 255 255 254 252 252 254 254 255 253 252 251 251 250 248 247 246 246 243 242 240 239 236 234 233 232 228 228 229 232 240 251 263 260 251 245 235 224 216 212
264 261 258 258 256 256 256 255 255 256 256 255 254 253 252 251 250 250 249 247 246 243 241 241 238 236 234 230 228 227 226 227 232 238 244 247 250 243 236 229 220 220 223
264 262 259 258 257 257 259 259 259 260 260 258 256 255 254 253 252 251 250 246 245 242 241 240 236 234 232 229 227 226 224 226 230 234 235 241 242 239 232 227 224 224 225
263 262 259 258 259 261 261 261 261 261 260 261 258 258 255 256 255 255 252 249 246 242 240 239 237 232 230 229 227 224 224 226 228 231 230 236 238 236 229 223 222 224 228
264 261 259 259 261 262 261 263 263 262 262 262 261 259 258 259 258 256 254 251 248 242 239 238 237 231 229 228 226 224 223 223 225 228 229 231 237 235 223 219 225 232 232
265 263 262 263 263 264 263 264 264 262 264 263 262 261 260 261 262 258 255 252 248 243 240 237 236 232 230 227 226 224 222 223 223 225 227 230 233 229 222 224 232 235 231
268 268 266 265 265 264 263 264 264 263 265 266 266 262 262 262 260 260 255 251 246 243 240 236 234 232 230 227 225 223 222 222 222 224 226 229 229 227 225 228 231 233 231
275 270 268 266 266 264 263 264 264 263 263 264 264 263 262 262 264 262 259 254 248 244 240 237 236 232 229 226 224 224 223 222 221 222 225 226 229 229 229 231 231 231 233
279 274 270 268 266 263 262 262 262 262 262 264 264 264 262 262 264 262 271 264 254 240 240 242 233 232 227 225 223 223 223 222 221 222 225 226 228 229 231 232 231 233 233
285 279 273 270 267 266 264 263 261 263 263 263 263 262 262 263 265 265 265 265 259 245 252 258 236 226 228 223 221 220 222 222 221 223 224 226 228 230 232 229 229 230 230
290 285 280 274 271 268 265 264 262 263 262 262 261 262 262 262 265 267 265 263 258 255 258 268 237 233 230 222 218 218 221 221 221 223 223 225 228 231 230 228 226 225 228
293 291 286 280 277 272 268 264 263 263 263 263 261 263 263 263 265 263 263 263 261 258 258 253 250 242 228 223 216 221 219 220 221 222 223 225 227 229 229 226 224 224 221
293 292 288 285 281 276 271 267 263 262 264 264 261 262 262 265 264 264 264 262 263 262 257 251 245 243 233 232 218 222 219 223 219 223 223 225 227 227 227 223 222 222 221
291 290 288 283 281 278 273 270 265 263 264 263 262 262 261 264 264 267 265 262 263 260 250 251 250 243 226 230 222 224 225 224 222 223 224 224 226 226 226 223 221 220 221
293 290 285 284 282 279 275 271 267 266 266 265 264 263 261 262 264 265 266 261 261 258 257 248 244 245 237 239 229 227 225 224 222 223 222 223 225 227 225 222 221 221 221
291 288 287 285 283 281 277 274 270 269 268 265 265 264 262 263 264 265 263 260 257 257 253 241 246 241 247 234 225 227 225 223 222 222 223 219 223 224 224 222 222 221 221